Home   Weather   Kyiv   Past weeks

Flag for Ukraine Past Weather in Kyiv, Ukraine — Yesterday and Last 2 Weeks

Now
16 °F

Clear.


Feels Like: 5 °F
Forecast: 11 / 39 °F
Wind: 8 mph from West

Location: Kyiv

Current Time: Dec 7, 2016 at 6:45:26 pm

Latest Report: Dec 7, 2016 at 6:00 pm


Visibility: 10 mi

Pressure: 30.57 "Hg

Humidity: 67%

Dew Point: 7 °F

Location of KyivLocation

Past Weather in Kyiv — Graph

°F

Kyiv Temperature Yesterday

Maximum temperature yesterday: 32 °F (at 3:00 pm)
Minimum temperature yesterday: 21 °F (at 11:30 pm)
Average temperature yesterday: 28 °F

High & Low Weather Summary for the Past Weeks

 TemperatureHumidityPressure
High45 °F (Nov 27, 10:30 am)100% (Nov 25, 4:30 am)30.57 "Hg (Nov 25, 4:30 am)
Low10 °F (Dec 7, 7:00 am)54% (Dec 7, 1:30 pm)29.39 "Hg (Dec 2, 9:00 am)
Average29 °F82%30.01 "Hg
* Reported Nov 22 5:00 pm — Dec 7 5:30 pm, Kyiv, Weather by CustomWeather, © 2016

Note: Actual official high and low records may vary slightly from our data, if they occured in-between our weather recording intervals... More about our weather records

Advertising

Kyiv Weather History for the Previous 24 Hours

Scroll right to see more
 ConditionsComfort  
Time TempWeatherWind HumidityBarometerVisibility
5:30 pm
Wed, Dec 7
16 °FClear.6 mph67%30.57 "Hg10 mi
5:00 pm18 °FClear.8 mph62%30.57 "Hg10 mi
4:30 pm18 °FClear.6 mph68%30.57 "Hg10 mi
4:00 pm18 °FClear.8 mph62%30.57 "Hg10 mi
3:30 pm19 °FSunny.8 mph58%30.57 "Hg10 mi
3:00 pm19 °FSunny.10 mph58%30.57 "Hg10 mi
2:30 pm21 °FSunny.10 mph54%30.57 "Hg10 mi
2:00 pm21 °FSunny.10 mph54%30.57 "Hg10 mi
1:30 pm21 °FSunny.8 mph54%30.57 "Hg10 mi
1:00 pm19 °FSunny.8 mph63%30.57 "Hg10 mi
12:30 pm19 °FSunny.10 mph58%30.57 "Hg10 mi
12:00 pm19 °FSunny.8 mph58%30.57 "Hg6 mi
11:30 am19 °FSunny.8 mph63%30.57 "Hg10 mi
11:00 am18 °FSunny.8 mph68%30.57 "Hg10 mi
10:30 am16 °FSunny.8 mph73%30.57 "Hg10 mi
10:00 am16 °FSunny.13 mph73%30.54 "Hg10 mi
9:30 am14 °FSunny.13 mph79%30.54 "Hg10 mi
9:00 am14 °FSunny.10 mph79%30.51 "Hg10 mi
8:30 am12 °FSunny.10 mph79%30.51 "Hg10 mi
8:00 am10 °FSunny.8 mph92%30.48 "Hg10 mi
7:30 am10 °FClear.8 mph85%30.48 "Hg10 mi
7:00 am10 °FClear.8 mph85%30.45 "Hg10 mi
6:30 am12 °FClear.8 mph85%30.45 "Hg10 mi
6:00 am14 °FClear.8 mph79%30.45 "Hg10 mi
5:30 am14 °FPassing clouds.8 mph79%30.42 "HgN/A
5:00 am14 °FClear.10 mph79%30.42 "Hg10 mi
4:30 am16 °FPassing clouds.8 mph73%30.39 "HgN/A
4:00 am16 °FPassing clouds.8 mph73%30.39 "HgN/A
3:30 am16 °FPassing clouds.8 mph73%30.36 "HgN/A
3:00 am18 °FPassing clouds.10 mph68%30.36 "HgN/A
2:30 am18 °FOvercast.13 mph73%30.33 "HgN/A
2:00 am19 °FLight snow. Overcast.13 mph68%30.33 "HgN/A
1:30 am19 °FOvercast.10 mph73%30.30 "HgN/A
1:00 am19 °FPassing clouds.13 mph73%30.27 "HgN/A
12:30 am19 °FPassing clouds.13 mph73%30.27 "HgN/A
12:00 am19 °FPassing clouds.15 mph73%30.27 "HgN/A
11:30 pm
Tue, Dec 6
21 °FOvercast.17 mph68%30.24 "Hg6 mi
10:30 pm25 °FOvercast.17 mph74%30.18 "Hg6 mi
10:00 pm27 °FLight snow. Mostly cloudy.17 mph74%30.15 "Hg6 mi
9:30 pm28 °FLight snow. Mostly cloudy.15 mph74%30.15 "Hg6 mi
9:00 pm28 °FLight snow. Mostly cloudy.17 mph80%30.12 "Hg6 mi
8:00 pm30 °FSnow flurries. Passing clouds.15 mph93%30.07 "Hg3 mi
7:30 pm30 °FSnow showers. Passing clouds.13 mph100%30.04 "Hg1 mi
7:03 pm30 °FSnow. Mostly cloudy.10 mph93%30.04 "Hg1 mi
6:30 pm30 °FLight snow. Mostly cloudy.13 mph93%30.01 "Hg2 mi
6:00 pm30 °FLight snow. Partly cloudy.13 mph86%30.01 "Hg4 mi
Weather by CustomWeather, © 2016

See weather overviewHow to use our weather pages